QPF
0.00 0.00 0.00 0.01 0.01 0.01 0.01 0.02 0.01 0.00 0.00 0.01 0.02 0.02 0.02 0.01 0.01 0.01 0.00 0.00 0.00 0.00 0.00 0.00 0.00 0.01 0.01 0.02 0.02 0.02 0.02 0.02 0.03 0.02 0.03 0.03 0.02 0.02 0.02 0.03 0.03 0.03 0.03
0.00 0.00 0.01 0.00 0.01 0.02 0.03 0.02 0.01 0.01 0.00 0.01 0.01 0.02 0.02 0.02 0.01 0.01 0.01 0.00 0.00 0.00 0.01 0.01 0.00 0.00 0.01 0.01 0.02 0.01 0.01 0.02 0.03 0.02 0.02 0.02 0.02 0.02 0.03 0.03 0.04 0.04 0.04
0.00 0.00 0.01 0.00 0.01 0.02 0.04 0.05 0.03 0.01 0.01 0.01 0.01 0.02 0.02 0.01 0.01 0.01 0.01 0.00 0.01 0.01 0.00 0.00 0.00 0.00 0.00 0.01 0.01 0.01 0.01 0.01 0.01 0.01 0.01 0.01 0.01 0.02 0.02 0.02 0.04 0.05 0.05
0.00 0.01 0.01 0.00 0.01 0.01 0.02 0.02 0.03 0.03 0.02 0.02 0.02 0.02 0.02 0.02 0.01 0.00 0.00 0.00 0.01 0.01 0.01 0.00 0.00 0.00 0.00 0.00 0.01 0.01 0.01 0.02 0.01 0.01 0.02 0.02 0.02 0.02 0.02 0.02 0.03 0.04 0.04
0.01 0.01 0.01 0.01 0.01 0.01 0.01 0.02 0.03 0.03 0.03 0.02 0.02 0.02 0.03 0.02 0.01 0.00 0.00 0.00 0.01 0.01 0.01 0.01 0.01 0.00 0.00 0.00 0.00 0.01 0.02 0.01 0.01 0.01 0.02 0.04 0.03 0.02 0.01 0.01 0.02 0.03 0.04
0.01 0.01 0.01 0.02 0.02 0.01 0.01 0.02 0.04 0.05 0.03 0.02 0.02 0.03 0.02 0.01 0.01 0.01 0.00 0.00 0.00 0.01 0.01 0.01 0.01 0.00 0.00 0.00 0.00 0.01 0.02 0.03 0.02 0.01 0.01 0.02 0.02 0.01 0.01 0.01 0.01 0.03 0.10
0.01 0.01 0.01 0.02 0.01 0.01 0.01 0.02 0.03 0.05 0.04 0.03 0.03 0.03 0.02 0.01 0.01 0.01 0.00 0.00 0.01 0.00 0.01 0.01 0.01 0.01 0.01 0.00 0.00 0.00 0.01 0.01 0.01 0.01 0.01 0.01 0.01 0.01 0.01 0.01 0.01 0.02 0.05
0.00 0.00 0.01 0.01 0.01 0.01 0.02 0.03 0.02 0.03 0.04 0.04 0.03 0.03 0.02 0.01 0.01 0.01 0.01 0.01 0.01 0.00 0.01 0.01 0.01 0.01 0.01 0.00 0.00 0.01 0.01 0.01 0.01 0.01 0.01 0.01 0.02 0.03 0.02 0.02 0.02 0.02 0.01
0.00 0.00 0.01 0.00 0.01 0.01 0.02 0.03 0.04 0.04 0.04 0.03 0.02 0.02 0.01 0.01 0.01 0.01 0.01 0.01 0.01 0.01 0.00 0.00 0.00 0.01 0.01 0.01 0.01 0.01 0.02 0.01 0.01 0.01 0.01 0.01 0.02 0.02 0.02 0.01 0.03 0.03 0.01
0.00 0.01 0.01 0.00 0.01 0.01 0.02 0.03 0.04 0.04 0.04 0.04 0.04 0.03 0.02 0.02 0.01 0.01 0.01 0.01 0.01 0.01 0.00 0.01 0.01 0.01 0.00 0.00 0.01 0.01 0.03 0.02 0.02 0.02 0.01 0.01 0.01 0.01 0.01 0.01 0.01 0.02 0.02
0.01 0.01 0.01 0.00 0.01 0.01 0.03 0.03 0.02 0.02 0.02 0.02 0.02 0.03 0.03 0.03 0.02 0.02 0.01 0.01 0.01 0.01 0.00 0.01 0.01 0.01 0.01 0.01 0.00 0.01 0.02 0.02 0.02 0.02 0.01 0.01 0.01 0.01 0.00 0.01 0.01 0.01 0.02
0.02 0.01 0.01 0.02 0.02 0.02 0.02 0.02 0.02 0.02 0.02 0.01 0.01 0.01 0.02 0.02 0.03 0.03 0.02 0.02 0.02 0.01 0.00 0.00 0.01 0.01 0.01 0.01 0.01 0.01 0.01 0.01 0.01 0.01 0.01 0.01 0.01 0.01 0.01 0.01 0.01 0.02 0.02
0.02 0.02 0.03 0.03 0.03 0.02 0.01 0.02 0.01 0.02 0.01 0.00 0.01 0.01 0.01 0.01 0.02 0.02 0.03 0.03 0.03 0.02 0.02 0.02 0.01 0.01 0.02 0.01 0.01 0.01 0.02 0.02 0.02 0.01 0.00 0.01 0.01 0.01 0.01 0.01 0.01 0.02 0.02
0.03 0.04 0.02 0.02 0.02 0.02 0.02 0.01 0.01 0.01 0.01 0.01 0.01 0.01 0.01 0.01 0.01 0.02 0.03 0.04 0.03 0.02 0.02 0.01 0.01 0.01 0.00 0.00 0.01 0.01 0.02 0.02 0.01 0.01 0.01 0.01 0.01 0.02 0.02 0.01 0.01 0.01 0.01
0.02 0.03 0.01 0.01 0.02 0.02 0.02 0.01 0.01 0.01 0.01 0.01 0.01 0.01 0.01 0.01 0.01 0.01 0.01 0.02 0.02 0.01 0.01 0.01 0.01 0.00 0.00 0.00 0.01 0.01 0.02 0.02 0.01 0.01 0.01 0.01 0.01 0.01 0.02 0.01 0.01 0.01 0.01
0.01 0.01 0.00 0.01 0.01 0.02 0.02 0.01 0.01 0.00 0.01 0.00 0.00 0.00 0.00 0.00 0.01 0.01 0.01 0.01 0.02 0.02 0.01 0.01 0.01 0.01 0.01 0.01 0.01 0.02 0.02 0.02 0.01 0.00 0.00 0.01 0.01 0.01 0.01 0.00 0.01 0.01 0.01
0.00 0.00 0.00 0.00 0.01 0.01 0.01 0.00 0.00 0.00 0.01 0.01 0.01 0.00 0.01 0.01 0.01 0.01 0.02 0.02 0.02 0.02 0.02 0.02 0.01 0.01 0.01 0.02 0.03 0.03 0.02 0.01 0.01 0.00 0.01 0.01 0.01 0.01 0.01 0.01 0.01 0.01 0.02
0.00 0.00 0.00 0.00 0.00 0.00 0.01 0.01 0.01 0.01 0.01 0.01 0.01 0.01 0.01 0.02 0.02 0.02 0.02 0.02 0.02 0.01 0.01 0.01 0.01 0.01 0.02 0.03 0.05 0.04 0.02 0.01 0.01 0.01 0.01 0.01 0.01 0.01 0.01 0.01 0.01 0.01 0.02
0.00 0.00 0.01 0.00 0.00 0.00 0.01 0.01 0.01 0.01 0.01 0.01 0.01 0.01 0.01 0.02 0.02 0.02 0.01 0.01 0.01 0.01 0.01 0.01 0.01 0.01 0.03 0.04 0.03 0.02 0.01 0.01 0.01 0.01 0.01 0.01 0.01 0.01 0.01 0.01 0.01 0.01 0.03
0.00 0.00 0.01 0.00 0.00 0.00 0.01 0.01 0.01 0.01 0.01 0.01 0.01 0.01 0.01 0.01 0.02 0.02 0.01 0.01 0.01 0.01 0.01 0.02 0.02 0.03 0.03 0.03 0.02 0.03 0.02 0.01 0.01 0.02 0.01 0.01 0.01 0.01 0.01 0.01 0.01 0.01 0.02
0.00 0.00 0.01 0.00 0.01 0.01 0.01 0.01 0.01 0.01 0.01 0.01 0.01 0.01 0.01 0.01 0.01 0.01 0.01 0.02 0.01 0.01 0.02 0.04 0.03 0.02 0.02 0.03 0.02 0.03 0.03 0.02 0.02 0.02 0.01 0.01 0.01 0.02 0.02 0.02 0.02 0.03 0.03
0.00 0.01 0.01 0.01 0.02 0.02 0.01 0.01 0.01 0.01 0.01 0.01 0.00 0.01 0.01 0.01 0.01 0.01 0.01 0.01 0.01 0.01 0.01 0.02 0.02 0.01 0.02 0.02 0.03 0.03 0.04 0.04 0.04 0.02 0.01 0.01 0.02 0.02 0.02 0.02 0.03 0.04 0.04
0.00 0.01 0.01 0.01 0.02 0.01 0.01 0.01 0.01 0.01 0.01 0.01 0.01 0.00 0.01 0.01 0.00 0.01 0.01 0.01 0.01 0.00 0.00 0.00 0.01 0.01 0.01 0.02 0.03 0.03 0.04 0.04 0.02 0.01 0.01 0.01 0.02 0.02 0.03 0.03 0.03 0.04 0.03
0.00 0.01 0.01 0.01 0.01 0.01 0.01 0.00 0.01 0.01 0.01 0.01 0.01 0.01 0.01 0.01 0.00 0.01 0.01 0.01 0.01 0.00 0.00 0.00 0.00 0.00 0.01 0.02 0.02 0.02 0.02 0.02 0.02 0.01 0.01 0.02 0.01 0.01 0.02 0.02 0.03 0.04 0.03
0.00 0.01 0.01 0.00 0.01 0.01 0.00 0.00 0.00 0.00 0.00 0.00 0.01 0.01 0.01 0.01 0.01 0.01 0.01 0.01 0.01 0.00 0.00 0.00 0.00 0.00 0.01 0.01 0.01 0.01 0.01 0.01 0.02 0.02 0.01 0.01 0.01 0.01 0.01 0.02 0.03 0.05 0.04
0.00 0.01 0.00 0.00 0.00 0.01 0.01 0.01 0.00 0.00 0.00 0.00 0.00 0.00 0.00 0.01 0.01 0.01 0.01 0.01 0.01 0.01 0.01 0.01 0.01 0.01 0.01 0.01 0.01 0.00 0.01 0.01 0.02 0.02 0.02 0.01 0.01 0.01 0.01 0.02 0.02 0.04 0.04
MSLP
1020.93 1020.81 1020.70 1020.58 1020.44 1020.28 1020.11 1019.94 1019.79 1019.69 1019.63 1019.63 1019.66 1019.70 1019.72 1019.72 1019.65 1019.54 1019.40 1019.27 1019.17 1019.14 1019.21 1019.39 1019.67 1020.01 1020.38 1020.74 1021.05 1021.29 1021.48 1021.64 1021.78 1021.95 1022.16 1022.41 1022.68 1022.91 1023.05 1023.04 1022.83 1022.40 1021.78
1021.17 1021.10 1021.03 1020.93 1020.78 1020.60 1020.39 1020.19 1020.02 1019.91 1019.88 1019.91 1019.99 1020.07 1020.12 1020.12 1020.05 1019.91 1019.72 1019.53 1019.38 1019.31 1019.35 1019.51 1019.76 1020.08 1020.43 1020.75 1021.03 1021.25 1021.42 1021.55 1021.71 1021.90 1022.16 1022.49 1022.85 1023.21 1023.50 1023.66 1023.65 1023.43 1023.01
1021.34 1021.32 1021.30 1021.21 1021.07 1020.86 1020.62 1020.39 1020.20 1020.09 1020.08 1020.14 1020.25 1020.38 1020.47 1020.48 1020.41 1020.25 1020.03 1019.81 1019.62 1019.50 1019.50 1019.61 1019.83 1020.10 1020.40 1020.67 1020.90 1021.07 1021.20 1021.32 1021.47 1021.68 1021.98 1022.38 1022.83 1023.31 1023.74 1024.06 1024.22 1024.19 1023.96
1021.43 1021.47 1021.48 1021.42 1021.28 1021.05 1020.79 1020.52 1020.32 1020.20 1020.20 1020.29 1020.44 1020.60 1020.73 1020.77 1020.71 1020.55 1020.32 1020.08 1019.86 1019.71 1019.67 1019.74 1019.89 1020.11 1020.34 1020.55 1020.72 1020.83 1020.92 1021.01 1021.14 1021.36 1021.69 1022.13 1022.65 1023.21 1023.75 1024.20 1024.51 1024.65 1024.60
1021.44 1021.53 1021.59 1021.55 1021.41 1021.18 1020.89 1020.60 1020.37 1020.25 1020.25 1020.35 1020.53 1020.73 1020.88 1020.95 1020.92 1020.78 1020.56 1020.31 1020.08 1019.92 1019.84 1019.87 1019.98 1020.14 1020.31 1020.45 1020.56 1020.62 1020.66 1020.71 1020.82 1021.03 1021.36 1021.81 1022.36 1022.97 1023.57 1024.11 1024.54 1024.81 1024.92
1021.38 1021.52 1021.61 1021.61 1021.47 1021.24 1020.93 1020.62 1020.38 1020.24 1020.23 1020.34 1020.52 1020.74 1020.92 1021.02 1021.02 1020.90 1020.71 1020.48 1020.26 1020.10 1020.01 1020.01 1020.08 1020.20 1020.31 1020.41 1020.46 1020.47 1020.47 1020.49 1020.57 1020.75 1021.06 1021.48 1022.02 1022.63 1023.25 1023.84 1024.34 1024.72 1024.96
1021.28 1021.46 1021.58 1021.60 1021.48 1021.24 1020.93 1020.60 1020.33 1020.18 1020.15 1020.25 1020.43 1020.65 1020.84 1020.97 1020.99 1020.91 1020.76 1020.56 1020.37 1020.22 1020.14 1020.13 1020.19 1020.27 1020.36 1020.42 1020.44 1020.42 1020.39 1020.38 1020.42 1020.56 1020.81 1021.19 1021.67 1022.24 1022.84 1023.44 1023.99 1024.45 1024.80
1021.14 1021.35 1021.51 1021.55 1021.44 1021.21 1020.89 1020.55 1020.27 1020.08 1020.03 1020.11 1020.27 1020.47 1020.67 1020.80 1020.85 1020.81 1020.69 1020.53 1020.38 1020.26 1020.20 1020.20 1020.25 1020.33 1020.41 1020.46 1020.47 1020.44 1020.40 1020.36 1020.37 1020.46 1020.65 1020.95 1021.35 1021.84 1022.39 1022.97 1023.53 1024.06 1024.52
1020.98 1021.21 1021.39 1021.44 1021.35 1021.12 1020.81 1020.47 1020.18 1019.98 1019.90 1019.94 1020.07 1020.25 1020.43 1020.56 1020.61 1020.59 1020.51 1020.39 1020.28 1020.19 1020.16 1020.18 1020.25 1020.33 1020.42 1020.48 1020.50 1020.49 1020.44 1020.40 1020.38 1020.42 1020.54 1020.76 1021.07 1021.47 1021.95 1022.49 1023.05 1023.62 1024.17
1020.80 1021.04 1021.23 1021.29 1021.21 1021.00 1020.70 1020.37 1020.08 1019.87 1019.77 1019.78 1019.87 1020.01 1020.16 1020.27 1020.32 1020.31 1020.24 1020.16 1020.08 1020.02 1020.02 1020.06 1020.15 1020.25 1020.36 1020.44 1020.48 1020.49 1020.46 1020.43 1020.40 1020.40 1020.47 1020.61 1020.84 1021.15 1021.56 1022.04 1022.59 1023.20 1023.83
1020.61 1020.84 1021.01 1021.08 1021.01 1020.82 1020.55 1020.24 1019.97 1019.76 1019.66 1019.64 1019.70 1019.80 1019.90 1019.98 1020.01 1020.00 1019.95 1019.88 1019.82 1019.79 1019.80 1019.87 1019.97 1020.08 1020.20 1020.31 1020.38 1020.41 1020.41 1020.40 1020.37 1020.37 1020.40 1020.49 1020.64 1020.89 1021.23 1021.66 1022.20 1022.81 1023.50
1020.38 1020.59 1020.75 1020.81 1020.75 1020.59 1020.35 1020.10 1019.86 1019.69 1019.58 1019.56 1019.59 1019.65 1019.71 1019.75 1019.76 1019.73 1019.67 1019.61 1019.57 1019.55 1019.57 1019.64 1019.74 1019.86 1019.98 1020.09 1020.18 1020.24 1020.27 1020.28 1020.28 1020.28 1020.31 1020.37 1020.48 1020.68 1020.97 1021.36 1021.87 1022.48 1023.20
1020.12 1020.30 1020.43 1020.48 1020.44 1020.32 1020.14 1019.95 1019.78 1019.65 1019.57 1019.55 1019.56 1019.60 1019.62 1019.62 1019.60 1019.55 1019.49 1019.43 1019.39 1019.38 1019.40 1019.45 1019.54 1019.64 1019.74 1019.84 1019.93 1019.99 1020.05 1020.08 1020.11 1020.14 1020.18 1020.24 1020.35 1020.52 1020.77 1021.13 1021.60 1022.20 1022.91
1019.82 1019.97 1020.08 1020.12 1020.10 1020.03 1019.92 1019.82 1019.73 1019.67 1019.64 1019.64 1019.65 1019.66 1019.66 1019.63 1019.59 1019.52 1019.45 1019.39 1019.35 1019.34 1019.35 1019.38 1019.43 1019.49 1019.56 1019.62 1019.68 1019.74 1019.79 1019.84 1019.90 1019.96 1020.03 1020.11 1020.23 1020.40 1020.63 1020.96 1021.40 1021.95 1022.61
1019.48 1019.60 1019.69 1019.75 1019.76 1019.75 1019.74 1019.73 1019.74 1019.76 1019.79 1019.83 1019.85 1019.86 1019.84 1019.79 1019.72 1019.65 1019.58 1019.53 1019.49 1019.47 1019.47 1019.48 1019.49 1019.49 1019.50 1019.50 1019.50 1019.52 1019.55 1019.60 1019.67 1019.76 1019.86 1019.98 1020.13 1020.31 1020.54 1020.84 1021.23 1021.72 1022.32
1019.11 1019.23 1019.32 1019.39 1019.46 1019.53 1019.61 1019.71 1019.82 1019.93 1020.04 1020.12 1020.16 1020.17 1020.13 1020.08 1020.00 1019.93 1019.88 1019.84 1019.81 1019.80 1019.79 1019.77 1019.73 1019.67 1019.60 1019.52 1019.45 1019.40 1019.38 1019.40 1019.47 1019.57 1019.70 1019.86 1020.04 1020.24 1020.47 1020.75 1021.10 1021.52 1022.02
1018.74 1018.86 1018.97 1019.09 1019.22 1019.37 1019.56 1019.77 1019.98 1020.18 1020.35 1020.48 1020.54 1020.55 1020.52 1020.46 1020.39 1020.33 1020.29 1020.28 1020.28 1020.28 1020.27 1020.23 1020.15 1020.02 1019.87 1019.70 1019.53 1019.40 1019.31 1019.28 1019.32 1019.42 1019.57 1019.75 1019.96 1020.18 1020.43 1020.69 1021.00 1021.35 1021.77
1018.39 1018.54 1018.69 1018.86 1019.07 1019.31 1019.60 1019.91 1020.21 1020.49 1020.72 1020.88 1020.97 1020.99 1020.95 1020.90 1020.84 1020.79 1020.78 1020.80 1020.83 1020.85 1020.85 1020.80 1020.68 1020.51 1020.28 1020.01 1019.75 1019.52 1019.34 1019.25 1019.24 1019.32 1019.46 1019.66 1019.90 1020.15 1020.40 1020.67 1020.94 1021.24 1021.58
1018.08 1018.28 1018.49 1018.73 1019.01 1019.34 1019.72 1020.11 1020.49 1020.83 1021.10 1021.29 1021.39 1021.41 1021.38 1021.32 1021.28 1021.26 1021.27 1021.32 1021.38 1021.44 1021.45 1021.40 1021.26 1021.04 1020.74 1020.40 1020.05 1019.72 1019.46 1019.29 1019.23 1019.27 1019.40 1019.60 1019.85 1020.12 1020.40 1020.67 1020.94 1021.21 1021.49
1017.82 1018.09 1018.37 1018.68 1019.04 1019.45 1019.89 1020.35 1020.79 1021.17 1021.47 1021.67 1021.77 1021.79 1021.76 1021.71 1021.67 1021.67 1021.71 1021.79 1021.88 1021.96 1021.99 1021.95 1021.80 1021.55 1021.21 1020.80 1020.38 1019.98 1019.64 1019.40 1019.27 1019.27 1019.37 1019.57 1019.82 1020.11 1020.42 1020.71 1020.99 1021.26 1021.52
1017.63 1017.98 1018.33 1018.71 1019.13 1019.60 1020.10 1020.60 1021.07 1021.47 1021.78 1021.99 1022.09 1022.12 1022.09 1022.04 1022.01 1022.02 1022.07 1022.17 1022.28 1022.38 1022.42 1022.38 1022.23 1021.97 1021.60 1021.17 1020.70 1020.24 1019.84 1019.55 1019.37 1019.32 1019.39 1019.57 1019.83 1020.13 1020.46 1020.78 1021.09 1021.38 1021.65
1017.50 1017.92 1018.34 1018.78 1019.26 1019.77 1020.30 1020.83 1021.31 1021.72 1022.03 1022.24 1022.35 1022.38 1022.35 1022.31 1022.29 1022.30 1022.36 1022.46 1022.58 1022.67 1022.72 1022.68 1022.53 1022.27 1021.90 1021.45 1020.97 1020.49 1020.06 1019.72 1019.51 1019.42 1019.46 1019.62 1019.87 1020.18 1020.52 1020.87 1021.21 1021.53 1021.83
1017.39 1017.89 1018.37 1018.87 1019.39 1019.92 1020.47 1021.00 1021.48 1021.90 1022.21 1022.43 1022.55 1022.59 1022.58 1022.55 1022.53 1022.54 1022.60 1022.68 1022.79 1022.87 1022.91 1022.86 1022.72 1022.46 1022.10 1021.67 1021.19 1020.72 1020.28 1019.93 1019.69 1019.58 1019.59 1019.72 1019.94 1020.24 1020.59 1020.96 1021.32 1021.68 1022.02
1017.30 1017.85 1018.39 1018.93 1019.47 1020.02 1020.57 1021.10 1021.58 1021.99 1022.31 1022.54 1022.68 1022.75 1022.76 1022.75 1022.75 1022.76 1022.80 1022.87 1022.95 1023.01 1023.02 1022.96 1022.81 1022.56 1022.23 1021.83 1021.38 1020.93 1020.52 1020.18 1019.93 1019.79 1019.77 1019.86 1020.05 1020.32 1020.65 1021.01 1021.39 1021.76 1022.13
1017.16 1017.78 1018.36 1018.92 1019.48 1020.03 1020.57 1021.09 1021.57 1021.98 1022.32 1022.58 1022.76 1022.86 1022.92 1022.94 1022.96 1022.97 1023.01 1023.05 1023.09 1023.11 1023.09 1023.01 1022.86 1022.62 1022.32 1021.96 1021.56 1021.16 1020.78 1020.46 1020.22 1020.06 1020.01 1020.06 1020.19 1020.40 1020.68 1021.01 1021.36 1021.73 1022.10
1016.97 1017.62 1018.23 1018.82 1019.38 1019.93 1020.47 1020.98 1021.45 1021.88 1022.24 1022.53 1022.76 1022.92 1023.03 1023.09 1023.14 1023.17 1023.20 1023.21 1023.22 1023.20 1023.15 1023.05 1022.89 1022.67 1022.40 1022.09 1021.75 1021.40 1021.07 1020.78 1020.55 1020.38 1020.29 1020.28 1020.35 1020.48 1020.68 1020.94 1021.23 1021.56 1021.91
Thickness
5731 5732 5730 5729 5726 5723 5720 5717 5715 5714 5712 5710 5707 5705 5704 5705 5706 5706 5707 5706 5706 5705 5705 5703 5702 5702 5700 5698 5697 5696 5694 5692 5692 5689 5685 5686 5687 5687 5687 5687 5687 5687 5687
5727 5727 5727 5726 5723 5720 5718 5716 5714 5713 5712 5710 5707 5706 5704 5703 5703 5704 5704 5704 5704 5703 5702 5701 5699 5698 5697 5695 5694 5693 5690 5689 5689 5685 5680 5676 5677 5681 5683 5683 5683 5682 5682
5727 5725 5724 5722 5721 5719 5717 5716 5714 5712 5711 5709 5707 5705 5702 5700 5699 5699 5700 5701 5701 5701 5700 5698 5697 5696 5694 5692 5691 5690 5688 5685 5685 5685 5680 5673 5669 5671 5676 5678 5678 5678 5678
5729 5726 5723 5721 5720 5719 5718 5716 5713 5711 5710 5708 5705 5702 5698 5695 5696 5696 5697 5698 5699 5698 5697 5696 5695 5693 5692 5691 5690 5689 5687 5685 5682 5682 5682 5679 5676 5670 5667 5671 5673 5674 5673
5728 5726 5724 5722 5720 5719 5717 5715 5712 5710 5709 5707 5704 5701 5698 5696 5695 5695 5695 5695 5696 5696 5695 5694 5692 5691 5690 5689 5688 5687 5686 5684 5682 5680 5679 5677 5674 5672 5667 5664 5666 5668 5669
5727 5725 5724 5721 5718 5717 5715 5713 5710 5708 5707 5705 5703 5701 5698 5695 5693 5692 5691 5692 5692 5692 5692 5691 5690 5689 5688 5687 5686 5685 5684 5682 5681 5680 5678 5676 5673 5670 5667 5663 5661 5661 5663
5725 5722 5719 5717 5715 5714 5712 5710 5708 5705 5704 5703 5701 5700 5698 5695 5693 5691 5690 5689 5688 5688 5689 5689 5688 5686 5686 5685 5684 5682 5681 5680 5679 5677 5676 5675 5674 5672 5669 5664 5659 5658 5659
5723 5721 5719 5717 5715 5713 5711 5708 5705 5703 5702 5701 5699 5698 5697 5695 5693 5692 5690 5688 5687 5687 5687 5687 5686 5684 5684 5683 5681 5680 5678 5677 5676 5676 5674 5673 5672 5671 5669 5664 5659 5655 5654
5721 5720 5718 5716 5714 5712 5710 5708 5705 5702 5701 5699 5698 5696 5695 5694 5692 5691 5690 5688 5687 5687 5686 5685 5683 5682 5681 5680 5678 5676 5675 5674 5673 5672 5671 5670 5669 5668 5667 5665 5662 5657 5651
5719 5718 5716 5714 5712 5711 5709 5707 5705 5702 5700 5698 5697 5696 5694 5692 5691 5689 5687 5686 5686 5685 5683 5682 5681 5679 5677 5676 5675 5673 5672 5670 5669 5668 5667 5666 5666 5665 5664 5662 5660 5658 5654
5718 5716 5714 5713 5711 5709 5706 5704 5702 5700 5698 5696 5695 5693 5692 5691 5689 5687 5686 5684 5683 5682 5680 5679 5677 5675 5674 5673 5671 5669 5668 5666 5665 5664 5663 5662 5662 5661 5659 5658 5657 5655 5652
5717 5714 5712 5709 5707 5704 5703 5701 5699 5698 5696 5694 5693 5691 5689 5687 5685 5684 5683 5682 5680 5679 5677 5676 5674 5672 5671 5669 5667 5665 5664 5662 5660 5659 5658 5657 5657 5656 5655 5653 5652 5650 5649
5713 5710 5707 5705 5703 5701 5700 5698 5697 5695 5693 5691 5689 5686 5685 5683 5681 5681 5680 5679 5677 5675 5673 5672 5670 5669 5667 5665 5664 5662 5660 5658 5657 5655 5654 5653 5652 5650 5649 5649 5647 5646 5645
5709 5706 5703 5702 5700 5698 5696 5694 5692 5691 5689 5687 5684 5682 5681 5680 5679 5678 5677 5675 5673 5671 5669 5668 5667 5665 5664 5662 5660 5658 5656 5654 5653 5651 5650 5649 5647 5646 5645 5643 5642 5641 5638
5704 5702 5700 5698 5696 5694 5692 5690 5688 5686 5685 5682 5680 5679 5678 5677 5675 5674 5672 5671 5670 5668 5666 5664 5663 5662 5660 5658 5656 5654 5652 5649 5647 5646 5645 5644 5644 5643 5641 5639 5637 5635 5631
5700 5699 5697 5695 5692 5690 5689 5687 5684 5682 5680 5678 5676 5675 5673 5672 5670 5669 5668 5667 5665 5663 5662 5660 5658 5657 5656 5655 5653 5650 5647 5644 5642 5640 5639 5639 5638 5637 5636 5635 5634 5632 5628
5696 5694 5693 5692 5690 5689 5687 5684 5682 5679 5676 5674 5672 5671 5669 5667 5665 5665 5663 5661 5660 5659 5657 5656 5654 5652 5651 5650 5648 5646 5642 5639 5637 5635 5633 5633 5632 5631 5629 5628 5627 5626 5625
5692 5691 5690 5689 5688 5686 5684 5682 5678 5675 5673 5670 5668 5667 5665 5663 5661 5659 5658 5657 5656 5654 5653 5651 5650 5648 5647 5646 5643 5641 5637 5634 5632 5630 5628 5626 5625 5624 5623 5621 5619 5618 5617
5690 5689 5688 5686 5684 5682 5680 5676 5673 5671 5669 5666 5664 5663 5661 5658 5656 5654 5653 5653 5651 5650 5649 5647 5645 5643 5641 5641 5639 5636 5631 5628 5625 5624 5623 5621 5619 5620 5618 5615 5612 5610 5610
5687 5686 5683 5681 5678 5676 5674 5670 5667 5665 5663 5662 5661 5660 5658 5655 5652 5651 5650 5649 5648 5646 5644 5642 5640 5638 5636 5635 5633 5631 5626 5622 5619 5618 5617 5616 5615 5614 5613 5609 5606 5604 5603
5682 5680 5678 5675 5672 5671 5668 5664 5661 5660 5660 5659 5658 5655 5653 5651 5649 5647 5646 5644 5643 5641 5639 5636 5634 5633 5631 5630 5628 5625 5621 5618 5614 5612 5611 5610 5610 5608 5606 5604 5602 5601 5599
5675 5673 5670 5667 5666 5665 5662 5658 5655 5656 5655 5654 5652 5650 5648 5647 5645 5642 5640 5638 5636 5634 5632 5629 5627 5626 5625 5624 5622 5620 5617 5614 5610 5608 5606 5605 5604 5602 5600 5598 5597 5595 5592
5668 5666 5663 5660 5659 5658 5656 5652 5650 5650 5649 5647 5645 5644 5642 5640 5639 5637 5634 5632 5629 5627 5625 5623 5621 5619 5618 5617 5616 5614 5611 5608 5605 5603 5602 5599 5597 5595 5593 5592 5590 5587 5583
5660 5659 5656 5654 5651 5651 5650 5648 5645 5643 5641 5640 5638 5637 5635 5634 5633 5631 5629 5626 5623 5620 5619 5616 5614 5613 5611 5609 5607 5605 5603 5601 5598 5596 5595 5593 5590 5587 5585 5583 5581 5579 5577
5653 5652 5650 5647 5646 5645 5643 5642 5640 5638 5635 5633 5632 5631 5630 5628 5626 5624 5623 5621 5619 5617 5615 5612 5610 5606 5604 5604 5602 5598 5596 5594 5591 5588 5585 5582 5580 5578 5576 5574 5573 5572 5570
5646 5645 5643 5641 5640 5639 5637 5636 5634 5632 5630 5627 5626 5625 5623 5621 5619 5617 5615 5614 5612 5611 5610 5608 5605 5602 5600 5598 5595 5593 5590 5588 5584 5580 5576 5574 5573 5572 5570 5568 5566 5565 5563